Regional Weather Roundup
Issued by NWS Wilmington, NC

Home | Current Version | Previous Version | Text Only | Print | Product List | Glossary On
Versions: 1 2 3 4 5 6 7 8 9 10 11 12 13 14 15 16 17 18 19 20 21 22 23 24 25 26 27
000
ASUS42 KILM 060313
RWRILM
RWRILM
REGIONAL HOURLY WEATHER ROUNDUP
NATIONAL WEATHER SERVICE WILMINGTON NC
1100 PM EDT THU MAY 05 2016

NOTE: "FAIR" INDICATES FEW OR NO CLOUDS BELOW 12,000 FEET WITH NO
SIGNIFICANT WEATHER AND/OR OBSTRUCTIONS TO VISIBILITY.

...............WFO WILMINGTON COUNTY WARNING AREA...............

......COASTAL NC AND SC COUNTIES......

CITY           SKY/WX    TMP DP  RH WIND       PRES   REMARKS
WILMINGTON     CLEAR     55  47  74 NW13      29.68R
N MYRTLE BEACH LGT RAIN  53  48  83 NW5       29.70R
MYRTLE BEACH   PTCLDY    54  41  62 NW7       29.74R

......INLAND NC AND SC COUNTIES.......

CITY           SKY/WX    TMP DP  RH WIND       PRES   REMARKS
LUMBERTON      CLEAR     52  44  74 NW8       29.70R
ELIZABETHTOWN  MOCLDY    53  47  78 NW5       29.69S
WHITEVILLE     NOT AVBL
FLORENCE       CLOUDY    52  44  74 NW9       29.74R
DARLINGTON     CLEAR     49  44  83 W7        29.74S
KINGSTREE      CLOUDY    54  46  76 W5        29.74S
HARTSVILLE     MOCLDY    50  41  71 NW3       29.74S
BENNETTSVILLE  FAIR      54  45  71 W3        29.73S
CONWAY         MOCLDY    50  46  87 CALM      29.73R
GEORGETOWN     MOCLDY    50  46  87 CALM      29.73S
MARION         MOCLDY    50  46  87 NW6       29.73R

....................REST OF NORTH CAROLINA......................

.........EASTERN NC.........

CITY           SKY/WX    TMP DP  RH WIND       PRES   REMARKS
CAPE HATTERAS  CLOUDY    54  50  86 N9G21     29.61R
JACKSONVILLE   CLOUDY    54  53  97 CALM      29.67R
MOREHEAD CITY  CLOUDY    55  53  93 N6        29.65R
KENANSVILLE    CLOUDY    52  48  87 W5        29.68R
NEW BERN       CLOUDY    54  52  93 CALM      29.66R
ELIZABETH CITY LGT RAIN  51  49  92 N16       29.61F

.........CENTRAL NC.........

CITY           SKY/WX    TMP DP  RH WIND       PRES   REMARKS
RALEIGH DURHAM LGT RAIN  49  47  93 NW5       29.67S
ROCKY MOUNT    RAIN      52  51  97 NE5       29.65R FOG
ROANOKE RAPIDS NOT AVBL
FAYETTEVILLE   CLOUDY    53  44  71 W9G18     29.68S
HOFFMAN        CLOUDY    50  45  81 W7        29.71R

.........WESTERN NC.........

CITY           SKY/WX    TMP DP  RH WIND       PRES   REMARKS
CHARLOTTE      RAIN      48  45  89 NW5       29.76R
GREENSBORO     LGT RAIN  46  44  93 NW6       29.70R FOG
HICKORY        NOT AVBL
BOONE          NOT AVBL
ASHEVILLE      NOT AVBL

.....................REST OF SOUTH CAROLINA.....................

.........EASTERN SC.........

CITY           SKY/WX    TMP DP  RH WIND       PRES   REMARKS
CHARLESTON     PTCLDY    57  42  57 W7        29.73S
BEAUFORT MCAS  CLEAR     59  40  49 W14       29.76S
HILTON HEAD    CLOUDY    61  41  48 W7        29.78S

.........CENTRAL SC.........

CITY           SKY/WX    TMP DP  RH WIND       PRES   REMARKS
COLUMBIA       PTCLDY    54  46  74 N7        29.77R
ORANGEBURG     MOCLDY    54  43  66 W9        29.75R
SUMTER SHAW    CLOUDY    52  46  82 N12       29.74R

.........WESTERN SC.........

CITY           SKY/WX    TMP DP  RH WIND       PRES   REMARKS
GREENVILLE     NOT AVBL
ROCK HILL      LGT RAIN  49  47  93 NW6       29.77R
ANDERSON       CLEAR     53  40  61 NW7       29.80R
CLEMSON        NOT AVBL
GREENWOOD      PTCLDY    52  39  61 N6        29.80R


...................COASTAL AND OFFSHORE REPORTS..................

................LOCAL PIERS AND NC RESERVE................


STATION/POSITION TIME  SKY/WX   TEMP    WIND        PRES    VSBY
                                AIR SEA DIR/SP/G
                 (UTC)          (F)     (DEG/KT/KT) (MB)    (MI)
JOHNY MRCER PIER 0200                               1003.2R
NC RESRV MASNBRO NOT AVBL
OCEAN CREST PIER NOT AVBL
SPRINGMAID  PIER 0200                               1005.6R


................COASTAL AND OFFSHORE BUOYS................


STATION/POSITION TIME  SKY/WX   TEMP    WIND        PRES    VSBY
                                AIR SEA DIR/SP/G
                 (UTC)          (F)     (DEG/KT/KT) (MB)    (MI)
DIMNDSHOAL 41025 0250            55 76  360/ 17/ 21 1002.5R
WVE H/P(F/S)=  5/ 8 SWL H/P/D(F/S/D)=  2/ 30/ 8

CAPE LOOKOUT     0300            56     350/  9/ 12 1003.5R
ONSLOW BAY 41036 NOT AVBL
ONSLOW BAY 41064 NOT AVBL
ONSLOW BAY 41159 0225               73                N/A
WVE H/P(F/S)=  5/ 4

5SE WRITBC 41038 0208            60 69  310/ 12/ 17 1004.8
MASNBO INL 41110 0206               69                N/A
WVE H/P(F/S)=  2/ 6

WILM HARBR 41108 0226               70                N/A
WVE H/P(F/S)=  3/ 6

27SE WRITB 41037 0208            62 72  310/ 14/ 19 1004.0R
FRYING PAN 41013 0200            63 72  300/ 17/ 21 1004.5R
SUNST NRSH 41024 0208            58 70  300/ 10/ 12 1004.7R
CAPRS NRSH 41029 0208            63 70  290/ 17/ 23 1006.3R
EDISTO     41004 0250            65 73  310/ 23/ 27 1005.8R
WVE H/P(F/S)=  6/ 6 SWL H/P/D(F/S/D)=  2/11



..........OFFSHORE BUOYS BEYOND 100 NM OFFSHORE...........
.....IN A TRIANGLE---HAT TO BERMUDA TO BAHAMAS TO HAT.....


STATION/POSITION TIME  SKY/WX   TEMP    WIND        PRES    VSBY
                                AIR SEA DIR/SP/G
                 (UTC)          (F)     (DEG/KT/KT) (MB)    (MI)
150E HAT   41001 NOT AVBL
W BERMUDA  41048 0250            71 70  210/ 10/ 12 1007.1S
WVE H/P(F/S)= 10/ 9 SWL H/P/D(F/S/D)= 10/160/ 9

ATLANTIC S 41049 0250            76 76  140/ 21/ 25 1017.0F
WVE H/P(F/S)=  6/ 6 SWL H/P/D(F/S/D)=  2/ 70/12

E BAHAMAS  41046 0250            80 80  160/ 19/ 23 1012.1F
WVE H/P(F/S)=  6/ 7 SWL H/P/D(F/S/D)=  2/130/13

NE BAHAMAS 41047 0250            76 77  290/  8/ 10 1009.5R
WVE H/P(F/S)=  7/ 8 SWL H/P/D(F/S/D)=  7/160/ 8

120E CANVRL41010 0220            74 78  240/ 10/ 12 1007.9R

END




USA.gov is the U.S. government's official web portal to all federal, state and local government web resources and services.